Date_Time,Julian_Date,Latitude,Longitude,Instrument_Depth,U,V,Speed,Direction
(yyyy-mm-dd hh:mn:ss UTC),(JD),(+ deg. North),(+ deg. East),(m),(cm/s),(cm/s),(cm/s),(deg True)
1977-07-17 14:35:00 UTC,2443342.107639,29.0386,-88.1128,0175,3.22,4.08,5.1976,38.2811
1977-07-17 14:55:00 UTC,2443342.121528,29.0386,-88.1128,0175,1.63,3.73,4.0706,23.6052
1977-07-17 15:15:00 UTC,2443342.135417,29.0386,-88.1128,0175,-0.51,3.44,3.4776,351.5670
1977-07-17 15:35:00 UTC,2443342.149306,29.0386,-88.1128,0175,1.68,3.78,4.1365,23.9625
1977-07-17 15:55:00 UTC,2443342.163194,29.0386,-88.1128,0175,0.13,2.75,2.7531,2.7065
1977-07-17 16:15:00 UTC,2443342.177083,29.0386,-88.1128,0175,-0.97,1.57,1.8455,328.2908
1977-07-17 16:35:00 UTC,2443342.190972,29.0386,-88.1128,0175,-1.01,1.59,1.8837,327.5755
1977-07-17 16:55:00 UTC,2443342.204861,29.0386,-88.1128,0175,-0.96,1.76,2.0048,331.3896
1977-07-17 17:15:00 UTC,2443342.218750,29.0386,-88.1128,0175,-0.98,1.72,1.9796,330.3269
1977-07-17 17:35:00 UTC,2443342.232639,29.0386,-88.1128,0175,-0.90,1.70,1.9235,332.1027
1977-07-17 17:55:00 UTC,2443342.246528,29.0386,-88.1128,0175,-0.73,1.64,1.7951,336.0051
1977-07-17 18:15:00 UTC,2443342.260417,29.0386,-88.1128,0175,-0.78,1.55,1.7352,333.2873
1977-07-17 18:35:00 UTC,2443342.274306,29.0386,-88.1128,0175,-0.97,1.44,1.7362,326.0353
1977-07-17 18:55:00 UTC,2443342.288194,29.0386,-88.1128,0175,-0.93,1.44,1.7142,327.1443
1977-07-17 19:15:00 UTC,2443342.302083,29.0386,-88.1128,0175,-1.04,1.49,1.8171,325.0855
1977-07-17 19:35:00 UTC,2443342.315972,29.0386,-88.1128,0175,-1.18,1.44,1.8617,320.6673
1977-07-17 19:55:00 UTC,2443342.329861,29.0386,-88.1128,0175,-1.03,1.55,1.8610,326.3953
1977-07-17 20:15:00 UTC,2443342.343750,29.0386,-88.1128,0175,-0.91,1.62,1.8581,330.6758
1977-07-17 20:35:00 UTC,2443342.357639,29.0386,-88.1128,0175,-0.81,1.61,1.8023,333.2928
1977-07-17 20:55:00 UTC,2443342.371528,29.0386,-88.1128,0175,-0.69,1.46,1.6148,334.7045
1977-07-17 21:15:00 UTC,2443342.385417,29.0386,-88.1128,0175,-0.96,1.32,1.6322,323.9726
1977-07-17 21:35:00 UTC,2443342.399306,29.0386,-88.1128,0175,-0.88,1.33,1.5948,326.5092
1977-07-17 21:55:00 UTC,2443342.413194,29.0386,-88.1128,0175,-1.13,1.07,1.5562,313.4378
1977-07-17 22:15:00 UTC,2443342.427083,29.0386,-88.1128,0175,-1.10,0.89,1.4150,308.9760
1977-07-17 22:35:00 UTC,2443342.440972,29.0386,-88.1128,0175,-1.09,1.14,1.5772,316.2845
1977-07-17 22:55:00 UTC,2443342.454861,29.0386,-88.1128,0175,-1.37,1.32,1.9024,313.9352
1977-07-17 23:15:00 UTC,2443342.468750,29.0386,-88.1128,0175,-1.35,1.45,1.9812,317.0454
1977-07-17 23:35:00 UTC,2443342.482639,29.0386,-88.1128,0175,-1.35,1.56,2.0630,319.1276
1977-07-17 23:55:00 UTC,2443342.496528,29.0386,-88.1128,0175,-1.47,1.70,2.2474,319.1498
1977-07-18 00:15:00 UTC,2443342.510417,29.0386,-88.1128,0175,-1.51,2.16,2.6355,325.0436
1977-07-18 00:35:00 UTC,2443342.524306,29.0386,-88.1128,0175,-1.52,2.16,2.6412,324.8658
1977-07-18 00:55:00 UTC,2443342.538194,29.0386,-88.1128,0175,-1.50,2.12,2.5970,324.7188
1977-07-18 01:15:00 UTC,2443342.552083,29.0386,-88.1128,0175,-1.48,2.11,2.5773,324.9533
1977-07-18 01:35:00 UTC,2443342.565972,29.0386,-88.1128,0175,-1.49,2.00,2.4940,323.3139
1977-07-18 01:55:00 UTC,2443342.579861,29.0386,-88.1128,0175,-1.43,2.02,2.4749,324.7045
1977-07-18 02:15:00 UTC,2443342.593750,29.0386,-88.1128,0175,-1.37,2.18,2.5747,327.8531
1977-07-18 02:35:00 UTC,2443342.607639,29.0386,-88.1128,0175,-1.47,2.09,2.5552,324.8794
1977-07-18 02:55:00 UTC,2443342.621528,29.0386,-88.1128,0175,-1.30,1.94,2.3353,326.1738
1977-07-18 03:15:00 UTC,2443342.635417,29.0386,-88.1128,0175,-1.19,1.91,2.2504,328.0756
1977-07-18 03:35:00 UTC,2443342.649306,29.0386,-88.1128,0175,-1.24,1.90,2.2688,326.8703
1977-07-18 03:55:00 UTC,2443342.663194,29.0386,-88.1128,0175,-1.17,1.87,2.2059,327.9671
1977-07-18 04:15:00 UTC,2443342.677083,29.0386,-88.1128,0175,-1.26,1.94,2.3133,326.9969
1977-07-18 04:35:00 UTC,2443342.690972,29.0386,-88.1128,0175,-1.11,2.05,2.3312,331.5661
1977-07-18 04:55:00 UTC,2443342.704861,29.0386,-88.1128,0175,-1.11,2.17,2.4374,332.9093
1977-07-18 05:15:00 UTC,2443342.718750,29.0386,-88.1128,0175,-1.17,2.09,2.3952,330.7595
1977-07-18 05:35:00 UTC,2443342.732639,29.0386,-88.1128,0175,-0.99,2.22,2.4307,335.9657
1977-07-18 05:55:00 UTC,2443342.746528,29.0386,-88.1128,0175,-1.11,2.14,2.4107,332.5846
1977-07-18 06:15:00 UTC,2443342.760417,29.0386,-88.1128,0175,-1.13,2.08,2.3671,331.4861
1977-07-18 06:35:00 UTC,2443342.774306,29.0386,-88.1128,0175,-1.07,2.16,2.4105,333.6476
1977-07-18 06:55:00 UTC,2443342.788194,29.0386,-88.1128,0175,-0.95,2.33,2.5162,337.8180
1977-07-18 07:15:00 UTC,2443342.802083,29.0386,-88.1128,0175,-1.14,2.22,2.4956,332.8189
1977-07-18 07:35:00 UTC,2443342.815972,29.0386,-88.1128,0175,-1.07,2.32,2.5549,335.2405
1977-07-18 07:55:00 UTC,2443342.829861,29.0386,-88.1128,0175,-1.13,2.20,2.4732,332.8133
1977-07-18 08:15:00 UTC,2443342.843750,29.0386,-88.1128,0175,-0.97,2.23,2.4318,336.4920
1977-07-18 08:35:00 UTC,2443342.857639,29.0386,-88.1128,0175,-0.97,2.19,2.3952,336.1104
1977-07-18 08:55:00 UTC,2443342.871528,29.0386,-88.1128,0175,-1.11,2.28,2.5358,334.0412
1977-07-18 09:15:00 UTC,2443342.885417,29.0386,-88.1128,0175,-1.17,2.29,2.5716,332.9367
1977-07-18 09:35:00 UTC,2443342.899306,29.0386,-88.1128,0175,-1.18,2.38,2.6565,333.6279
1977-07-18 09:55:00 UTC,2443342.913194,29.0386,-88.1128,0175,-1.18,2.31,2.5939,332.9410
1977-07-18 10:15:00 UTC,2443342.927083,29.0386,-88.1128,0175,-1.20,2.37,2.6565,333.1456
1977-07-18 10:35:00 UTC,2443342.940972,29.0386,-88.1128,0175,-1.08,2.27,2.5138,334.5562
1977-07-18 10:55:00 UTC,2443342.954861,29.0386,-88.1128,0175,-1.04,2.13,2.3703,333.9755
1977-07-18 11:15:00 UTC,2443342.968750,29.0386,-88.1128,0175,-0.88,2.20,2.3695,338.1986
1977-07-18 11:35:00 UTC,2443342.982639,29.0386,-88.1128,0175,-1.15,2.35,2.6163,333.9247
1977-07-18 11:55:00 UTC,2443342.996528,29.0386,-88.1128,0175,-1.17,2.16,2.4565,331.5571
1977-07-18 12:15:00 UTC,2443343.010417,29.0386,-88.1128,0175,-1.28,2.05,2.4168,328.0197
1977-07-18 12:35:00 UTC,2443343.024306,29.0386,-88.1128,0175,-1.35,2.10,2.4965,327.2648
1977-07-18 12:55:00 UTC,2443343.038194,29.0386,-88.1128,0175,-1.37,2.13,2.5325,327.2512
1977-07-18 13:15:00 UTC,2443343.052083,29.0386,-88.1128,0175,-1.27,2.15,2.4971,329.4297
1977-07-18 13:35:00 UTC,2443343.065972,29.0386,-88.1128,0175,-1.33,2.25,2.6137,329.4122
1977-07-18 13:55:00 UTC,2443343.079861,29.0386,-88.1128,0175,-1.36,2.26,2.6377,328.9617
1977-07-18 14:15:00 UTC,2443343.093750,29.0386,-88.1128,0175,-1.39,2.31,2.6960,328.9633
1977-07-18 14:35:00 UTC,2443343.107639,29.0386,-88.1128,0175,-1.32,2.43,2.7654,331.4888
1977-07-18 14:55:00 UTC,2443343.121528,29.0386,-88.1128,0175,-1.34,2.46,2.8013,331.4222
1977-07-18 15:15:00 UTC,2443343.135417,29.0386,-88.1128,0175,-1.30,2.55,2.8623,332.9873
1977-07-18 15:35:00 UTC,2443343.149306,29.0386,-88.1128,0175,-1.21,2.52,2.7954,334.3516
1977-07-18 15:55:00 UTC,2443343.163194,29.0386,-88.1128,0175,-1.19,2.51,2.7778,334.6342
1977-07-18 16:15:00 UTC,2443343.177083,29.0386,-88.1128,0175,-1.27,2.38,2.6976,331.9150
1977-07-18 16:35:00 UTC,2443343.190972,29.0386,-88.1128,0175,-1.03,2.47,2.6762,337.3637
1977-07-18 16:55:00 UTC,2443343.204861,29.0386,-88.1128,0175,-0.99,2.75,2.9228,340.2011
1977-07-18 17:15:00 UTC,2443343.218750,29.0386,-88.1128,0175,-1.01,2.81,2.9860,340.2300
1977-07-18 17:35:00 UTC,2443343.232639,29.0386,-88.1128,0175,-1.13,2.72,2.9454,337.4400
1977-07-18 17:55:00 UTC,2443343.246528,29.0386,-88.1128,0175,-1.02,2.70,2.8862,339.3046
1977-07-18 18:15:00 UTC,2443343.260417,29.0386,-88.1128,0175,-1.01,2.77,2.9484,339.9671
1977-07-18 18:35:00 UTC,2443343.274306,29.0386,-88.1128,0175,-1.04,2.60,2.8003,338.1986
1977-07-18 18:55:00 UTC,2443343.288194,29.0386,-88.1128,0175,-0.94,2.62,2.7835,340.2631
1977-07-18 19:15:00 UTC,2443343.302083,29.0386,-88.1128,0175,-1.04,2.51,2.7169,337.4937
1977-07-18 19:35:00 UTC,2443343.315972,29.0386,-88.1128,0175,-0.98,2.54,2.7225,338.9020
1977-07-18 19:55:00 UTC,2443343.329861,29.0386,-88.1128,0175,-1.12,2.48,2.7212,335.6955
1977-07-18 20:15:00 UTC,2443343.343750,29.0386,-88.1128,0175,-0.90,2.52,2.6759,340.3462
1977-07-18 20:35:00 UTC,2443343.357639,29.0386,-88.1128,0175,-0.96,2.37,2.5570,337.9489
1977-07-18 20:55:00 UTC,2443343.371528,29.0386,-88.1128,0175,-1.11,2.28,2.5358,334.0412
1977-07-18 21:15:00 UTC,2443343.385417,29.0386,-88.1128,0175,-1.25,2.37,2.6794,332.1917
1977-07-18 21:35:00 UTC,2443343.399306,29.0386,-88.1128,0175,-1.08,2.36,2.5954,335.4099
1977-07-18 21:55:00 UTC,2443343.413194,29.0386,-88.1128,0175,-1.05,2.40,2.6196,336.3706
1977-07-18 22:15:00 UTC,2443343.427083,29.0386,-88.1128,0175,-0.94,2.49,2.6615,339.3180
1977-07-18 22:35:00 UTC,2443343.440972,29.0386,-88.1128,0175,-1.06,2.30,2.5325,335.2565
1977-07-18 22:55:00 UTC,2443343.454861,29.0386,-88.1128,0175,-1.14,2.22,2.4956,332.8189
1977-07-18 23:15:00 UTC,2443343.468750,29.0386,-88.1128,0175,-1.18,2.24,2.5318,332.2204
1977-07-18 23:35:00 UTC,2443343.482639,29.0386,-88.1128,0175,-1.26,2.20,2.5353,330.1991
1977-07-18 23:55:00 UTC,2443343.496528,29.0386,-88.1128,0175,-1.41,2.16,2.5795,326.8644
1977-07-19 00:15:00 UTC,2443343.510417,29.0386,-88.1128,0175,-1.60,2.10,2.6401,322.6960
1977-07-19 00:35:00 UTC,2443343.524306,29.0386,-88.1128,0175,-1.56,2.10,2.6160,323.3929
1977-07-19 00:55:00 UTC,2443343.538194,29.0386,-88.1128,0175,-1.48,2.24,2.6848,326.5467
1977-07-19 01:15:00 UTC,2443343.552083,29.0386,-88.1128,0175,-1.46,2.37,2.7836,328.3655
1977-07-19 01:35:00 UTC,2443343.565972,29.0386,-88.1128,0175,-1.56,2.40,2.8624,326.9761
1977-07-19 01:55:00 UTC,2443343.579861,29.0386,-88.1128,0175,-1.61,2.44,2.9233,326.5817
1977-07-19 02:15:00 UTC,2443343.593750,29.0386,-88.1128,0175,-1.78,2.42,3.0041,323.6641
1977-07-19 02:35:00 UTC,2443343.607639,29.0386,-88.1128,0175,-1.49,2.56,2.9620,329.7993
1977-07-19 02:55:00 UTC,2443343.621528,29.0386,-88.1128,0175,-1.73,2.39,2.9504,324.1011
1977-07-19 03:15:00 UTC,2443343.635417,29.0386,-88.1128,0175,-1.86,2.29,2.9502,320.9156
1977-07-19 03:35:00 UTC,2443343.649306,29.0386,-88.1128,0175,-1.93,2.23,2.9492,319.1248
1977-07-19 03:55:00 UTC,2443343.663194,29.0386,-88.1128,0175,-1.84,2.38,3.0083,322.2921
1977-07-19 04:15:00 UTC,2443343.677083,29.0386,-88.1128,0175,-1.87,2.48,3.1060,322.9825
1977-07-19 04:35:00 UTC,2443343.690972,29.0386,-88.1128,0175,-1.83,2.53,3.1225,324.1210
1977-07-19 04:55:00 UTC,2443343.704861,29.0386,-88.1128,0175,-1.87,2.58,3.1864,324.0652
1977-07-19 05:15:00 UTC,2443343.718750,29.0386,-88.1128,0175,-1.73,2.46,3.0074,324.8831
1977-07-19 05:35:00 UTC,2443343.732639,29.0386,-88.1128,0175,-1.69,2.53,3.0425,326.2577
1977-07-19 05:55:00 UTC,2443343.746528,29.0386,-88.1128,0175,-1.64,2.45,2.9482,326.2021
1977-07-19 06:15:00 UTC,2443343.760417,29.0386,-88.1128,0175,-1.69,2.49,3.0094,325.8347
1977-07-19 06:35:00 UTC,2443343.774306,29.0386,-88.1128,0175,-1.77,2.38,2.9660,323.3619
1977-07-19 06:55:00 UTC,2443343.788194,29.0386,-88.1128,0175,-1.80,2.20,2.8425,320.7106
1977-07-19 07:15:00 UTC,2443343.802083,29.0386,-88.1128,0175,-1.72,2.23,2.8163,322.3570
1977-07-19 07:35:00 UTC,2443343.815972,29.0386,-88.1128,0175,-1.80,2.20,2.8425,320.7106
1977-07-19 07:55:00 UTC,2443343.829861,29.0386,-88.1128,0175,-1.93,2.17,2.9041,318.3501
1977-07-19 08:15:00 UTC,2443343.843750,29.0386,-88.1128,0175,-1.78,2.42,3.0041,323.6641
1977-07-19 08:35:00 UTC,2443343.857639,29.0386,-88.1128,0175,-1.89,2.52,3.1500,323.1301
1977-07-19 08:55:00 UTC,2443343.871528,29.0386,-88.1128,0175,-1.98,2.53,3.2127,321.9530
1977-07-19 09:15:00 UTC,2443343.885417,29.0386,-88.1128,0175,-1.93,2.47,3.1346,321.9968
1977-07-19 09:35:00 UTC,2443343.899306,29.0386,-88.1128,0175,-1.93,2.44,3.1110,321.6566
1977-07-19 09:55:00 UTC,2443343.913194,29.0386,-88.1128,0175,-2.02,2.55,3.2531,321.6153
1977-07-19 10:15:00 UTC,2443343.927083,29.0386,-88.1128,0175,-1.90,2.49,3.1321,322.6545
1977-07-19 10:35:00 UTC,2443343.940972,29.0386,-88.1128,0175,-2.00,2.66,3.3280,323.0612
1977-07-19 10:55:00 UTC,2443343.954861,29.0386,-88.1128,0175,-1.97,2.76,3.3909,324.4820
1977-07-19 11:15:00 UTC,2443343.968750,29.0386,-88.1128,0175,-2.11,2.81,3.5140,323.0975
1977-07-19 11:35:00 UTC,2443343.982639,29.0386,-88.1128,0175,-2.12,2.86,3.5601,323.4520
1977-07-19 11:55:00 UTC,2443343.996528,29.0386,-88.1128,0175,-2.10,2.69,3.4126,322.0219
1977-07-19 12:15:00 UTC,2443344.010417,29.0386,-88.1128,0175,-2.03,2.77,3.4342,323.7641
1977-07-19 12:35:00 UTC,2443344.024306,29.0386,-88.1128,0175,-1.74,3.03,3.4941,330.1331
1977-07-19 12:55:00 UTC,2443344.038194,29.0386,-88.1128,0175,-1.84,3.07,3.5792,329.0637
1977-07-19 13:15:00 UTC,2443344.052083,29.0386,-88.1128,0175,-1.77,3.04,3.5177,329.7905
1977-07-19 13:35:00 UTC,2443344.065972,29.0386,-88.1128,0175,-1.80,3.09,3.5760,329.7782
1977-07-19 13:55:00 UTC,2443344.079861,29.0386,-88.1128,0175,-1.83,3.10,3.5998,329.4457
1977-07-19 14:15:00 UTC,2443344.093750,29.0386,-88.1128,0175,-1.91,3.01,3.5649,327.6028
1977-07-19 14:35:00 UTC,2443344.107639,29.0386,-88.1128,0175,-1.73,2.97,3.4371,329.7796
1977-07-19 14:55:00 UTC,2443344.121528,29.0386,-88.1128,0175,-1.72,2.76,3.2521,328.0693
1977-07-19 15:15:00 UTC,2443344.135417,29.0386,-88.1128,0175,-1.85,2.60,3.1910,324.5667
1977-07-19 15:35:00 UTC,2443344.149306,29.0386,-88.1128,0175,-1.80,2.73,3.2700,326.6015
1977-07-19 15:55:00 UTC,2443344.163194,29.0386,-88.1128,0175,-1.90,2.66,3.2689,324.4623
1977-07-19 16:15:00 UTC,2443344.177083,29.0386,-88.1128,0175,-1.88,2.60,3.2085,324.1302
1977-07-19 16:35:00 UTC,2443344.190972,29.0386,-88.1128,0175,-1.85,2.50,3.1101,323.4986
1977-07-19 16:55:00 UTC,2443344.204861,29.0386,-88.1128,0175,-1.93,2.35,3.0410,320.6046
1977-07-19 17:15:00 UTC,2443344.218750,29.0386,-88.1128,0175,-1.80,2.33,2.9443,322.3127
1977-07-19 17:35:00 UTC,2443344.232639,29.0386,-88.1128,0175,-1.77,2.38,2.9660,323.3619
1977-07-19 17:55:00 UTC,2443344.246528,29.0386,-88.1128,0175,-1.95,2.29,3.0078,319.5847
1977-07-19 18:15:00 UTC,2443344.260417,29.0386,-88.1128,0175,-2.06,2.33,3.1101,318.5195
1977-07-19 18:35:00 UTC,2443344.274306,29.0386,-88.1128,0175,-2.03,2.35,3.1054,319.1786
1977-07-19 18:55:00 UTC,2443344.288194,29.0386,-88.1128,0175,-2.05,2.47,3.2099,320.3087
1977-07-19 19:15:00 UTC,2443344.302083,29.0386,-88.1128,0175,-2.05,2.52,3.2485,320.8719
1977-07-19 19:35:00 UTC,2443344.315972,29.0386,-88.1128,0175,-2.24,2.66,3.4775,319.8991
1977-07-19 19:55:00 UTC,2443344.329861,29.0386,-88.1128,0175,-2.25,2.73,3.5377,320.5055
1977-07-19 20:15:00 UTC,2443344.343750,29.0386,-88.1128,0175,-2.20,2.77,3.5374,321.5426
1977-07-19 20:35:00 UTC,2443344.357639,29.0386,-88.1128,0175,-2.03,2.80,3.4585,324.0579
1977-07-19 20:55:00 UTC,2443344.371528,29.0386,-88.1128,0175,-2.04,2.71,3.3920,323.0287
1977-07-19 21:15:00 UTC,2443344.385417,29.0386,-88.1128,0175,-2.08,2.60,3.3296,321.3402
1977-07-19 21:35:00 UTC,2443344.399306,29.0386,-88.1128,0175,-2.21,2.44,3.2921,317.8317
1977-07-19 21:55:00 UTC,2443344.413194,29.0386,-88.1128,0175,-2.24,2.30,3.2105,315.7572
1977-07-19 22:15:00 UTC,2443344.427083,29.0386,-88.1128,0175,-1.99,2.28,3.0263,318.8853
1977-07-19 22:35:00 UTC,2443344.440972,29.0386,-88.1128,0175,-2.09,2.16,3.0056,315.9436
1977-07-19 22:55:00 UTC,2443344.454861,29.0386,-88.1128,0175,-2.19,2.03,2.9861,312.8287
1977-07-19 23:15:00 UTC,2443344.468750,29.0386,-88.1128,0175,-2.19,1.91,2.9059,311.0932
1977-07-19 23:35:00 UTC,2443344.482639,29.0386,-88.1128,0175,-2.04,1.89,2.7810,312.8142
1977-07-19 23:55:00 UTC,2443344.496528,29.0386,-88.1128,0175,-2.23,2.02,3.0089,312.1712
1977-07-20 00:15:00 UTC,2443344.510417,29.0386,-88.1128,0175,-2.28,2.09,3.0930,312.5104
1977-07-20 00:35:00 UTC,2443344.524306,29.0386,-88.1128,0175,-2.33,2.38,3.3307,315.6082
1977-07-20 00:55:00 UTC,2443344.538194,29.0386,-88.1128,0175,-2.33,2.38,3.3307,315.6082
1977-07-20 01:15:00 UTC,2443344.552083,29.0386,-88.1128,0175,-2.13,2.29,3.1275,317.0732
1977-07-20 01:35:00 UTC,2443344.565972,29.0386,-88.1128,0175,-2.03,2.32,3.0827,318.8141
1977-07-20 01:55:00 UTC,2443344.579861,29.0386,-88.1128,0175,-1.97,2.49,3.1751,321.6502
1977-07-20 02:15:00 UTC,2443344.593750,29.0386,-88.1128,0175,-2.05,2.50,3.2330,320.6483
1977-07-20 02:35:00 UTC,2443344.607639,29.0386,-88.1128,0175,-2.14,2.42,3.2305,318.5138
1977-07-20 02:55:00 UTC,2443344.621528,29.0386,-88.1128,0175,-2.06,2.51,3.2471,320.6237
1977-07-20 03:15:00 UTC,2443344.635417,29.0386,-88.1128,0175,-2.14,2.61,3.3752,320.6509
1977-07-20 03:35:00 UTC,2443344.649306,29.0386,-88.1128,0175,-1.95,2.63,3.2740,323.4451
1977-07-20 03:55:00 UTC,2443344.663194,29.0386,-88.1128,0175,-2.00,2.49,3.1938,321.2281
1977-07-20 04:15:00 UTC,2443344.677083,29.0386,-88.1128,0175,-2.16,2.54,3.3342,319.6224
1977-07-20 04:35:00 UTC,2443344.690972,29.0386,-88.1128,0175,-2.32,2.59,3.4771,318.1475
1977-07-20 04:55:00 UTC,2443344.704861,29.0386,-88.1128,0175,-2.43,2.71,3.6399,318.1181
1977-07-20 05:15:00 UTC,2443344.718750,29.0386,-88.1128,0175,-2.29,2.56,3.4348,318.1864
1977-07-20 05:35:00 UTC,2443344.732639,29.0386,-88.1128,0175,-2.09,2.57,3.3126,320.8810
1977-07-20 05:55:00 UTC,2443344.746528,29.0386,-88.1128,0175,-1.82,2.69,3.2478,325.9185
1977-07-20 06:15:00 UTC,2443344.760417,29.0386,-88.1128,0175,-1.65,2.92,3.3539,330.5306
1977-07-20 06:35:00 UTC,2443344.774306,29.0386,-88.1128,0175,-1.80,3.05,3.5415,329.4524
1977-07-20 06:55:00 UTC,2443344.788194,29.0386,-88.1128,0175,-1.88,2.88,3.4393,326.8644
1977-07-20 07:15:00 UTC,2443344.802083,29.0386,-88.1128,0175,-2.15,2.79,3.5223,322.3818
1977-07-20 07:35:00 UTC,2443344.815972,29.0386,-88.1128,0175,-2.11,2.81,3.5140,323.0975
1977-07-20 07:55:00 UTC,2443344.829861,29.0386,-88.1128,0175,-2.06,2.78,3.4601,323.4613
1977-07-20 08:15:00 UTC,2443344.843750,29.0386,-88.1128,0175,-2.29,2.72,3.5556,319.9056
1977-07-20 08:35:00 UTC,2443344.857639,29.0386,-88.1128,0175,-2.21,2.76,3.5358,321.3149
1977-07-20 08:55:00 UTC,2443344.871528,29.0386,-88.1128,0175,-2.19,2.73,3.4999,321.2635
1977-07-20 09:15:00 UTC,2443344.885417,29.0386,-88.1128,0175,-2.14,2.77,3.5004,322.3116
1977-07-20 09:35:00 UTC,2443344.899306,29.0386,-88.1128,0175,-2.14,2.64,3.3984,320.9716
1977-07-20 09:55:00 UTC,2443344.913194,29.0386,-88.1128,0175,-2.01,2.61,3.2943,322.3996
1977-07-20 10:15:00 UTC,2443344.927083,29.0386,-88.1128,0175,-1.80,2.49,3.0725,324.1371
1977-07-20 10:35:00 UTC,2443344.940972,29.0386,-88.1128,0175,-1.86,2.47,3.0920,323.0189
1977-07-20 10:55:00 UTC,2443344.954861,29.0386,-88.1128,0175,-1.83,2.46,3.0660,323.3544
1977-07-20 11:15:00 UTC,2443344.968750,29.0386,-88.1128,0175,-1.66,2.70,3.1695,328.4162
1977-07-20 11:35:00 UTC,2443344.982639,29.0386,-88.1128,0175,-1.85,2.52,3.1262,323.7166
1977-07-20 11:55:00 UTC,2443344.996528,29.0386,-88.1128,0175,-1.97,2.43,3.1282,320.9683
1977-07-20 12:15:00 UTC,2443345.010417,29.0386,-88.1128,0175,-2.00,2.46,3.1704,320.8886
1977-07-20 12:35:00 UTC,2443345.024306,29.0386,-88.1128,0175,-1.93,2.57,3.2140,323.0945
1977-07-20 12:55:00 UTC,2443345.038194,29.0386,-88.1128,0175,-2.07,2.69,3.3943,322.4211
1977-07-20 13:15:00 UTC,2443345.052083,29.0386,-88.1128,0175,-2.08,2.84,3.5202,323.7812
1977-07-20 13:35:00 UTC,2443345.065972,29.0386,-88.1128,0175,-2.07,2.79,3.4740,323.4270
1977-07-20 13:55:00 UTC,2443345.079861,29.0386,-88.1128,0175,-1.84,2.98,3.5023,328.3068
1977-07-20 14:15:00 UTC,2443345.093750,29.0386,-88.1128,0175,-1.94,2.98,3.5558,326.9356
1977-07-20 14:35:00 UTC,2443345.107639,29.0386,-88.1128,0175,-1.95,2.95,3.5362,326.5346
1977-07-20 14:55:00 UTC,2443345.121528,29.0386,-88.1128,0175,-2.09,2.78,3.4780,323.0642
1977-07-20 15:15:00 UTC,2443345.135417,29.0386,-88.1128,0175,-1.99,2.75,3.3945,324.1091
1977-07-20 15:35:00 UTC,2443345.149306,29.0386,-88.1128,0175,-2.01,2.48,3.1923,320.9758
1977-07-20 15:55:00 UTC,2443345.163194,29.0386,-88.1128,0175,-1.74,2.53,3.0706,325.4819
1977-07-20 16:15:00 UTC,2443345.177083,29.0386,-88.1128,0175,-1.71,2.42,2.9632,324.7545
1977-07-20 16:35:00 UTC,2443345.190972,29.0386,-88.1128,0175,-1.74,2.40,2.9644,324.0579
1977-07-20 16:55:00 UTC,2443345.204861,29.0386,-88.1128,0175,-1.84,2.24,2.8988,320.5993
1977-07-20 17:15:00 UTC,2443345.218750,29.0386,-88.1128,0175,-2.03,2.10,2.9208,315.9710
1977-07-20 17:35:00 UTC,2443345.232639,29.0386,-88.1128,0175,-2.14,2.17,3.0477,315.3988
1977-07-20 17:55:00 UTC,2443345.246528,29.0386,-88.1128,0175,-2.14,2.39,3.2081,318.1588
1977-07-20 18:15:00 UTC,2443345.260417,29.0386,-88.1128,0175,-2.19,2.38,3.2343,317.3807
1977-07-20 18:35:00 UTC,2443345.274306,29.0386,-88.1128,0175,-2.01,2.51,3.2156,321.3124
1977-07-20 18:55:00 UTC,2443345.288194,29.0386,-88.1128,0175,-2.01,2.51,3.2156,321.3124
1977-07-20 19:15:00 UTC,2443345.302083,29.0386,-88.1128,0175,-1.98,2.45,3.1501,321.0561
1977-07-20 19:35:00 UTC,2443345.315972,29.0386,-88.1128,0175,-2.16,2.38,3.2140,317.7743
1977-07-20 19:55:00 UTC,2443345.329861,29.0386,-88.1128,0175,-1.97,2.46,3.1516,321.3118
1977-07-20 20:15:00 UTC,2443345.343750,29.0386,-88.1128,0175,-1.96,2.44,3.1297,321.2258
1977-07-20 20:35:00 UTC,2443345.357639,29.0386,-88.1128,0175,-1.93,2.47,3.1346,321.9968
1977-07-20 20:55:00 UTC,2443345.371528,29.0386,-88.1128,0175,-2.08,2.44,3.2062,319.5538
1977-07-20 21:15:00 UTC,2443345.385417,29.0386,-88.1128,0175,-2.13,2.43,3.2314,318.7640
1977-07-20 21:35:00 UTC,2443345.399306,29.0386,-88.1128,0175,-2.00,2.56,3.2486,322.0013
1977-07-20 21:55:00 UTC,2443345.413194,29.0386,-88.1128,0175,-2.10,2.29,3.1071,317.4782
1977-07-20 22:15:00 UTC,2443345.427083,29.0386,-88.1128,0175,-2.03,2.32,3.0827,318.8141
1977-07-20 22:35:00 UTC,2443345.440972,29.0386,-88.1128,0175,-2.16,2.41,3.2363,318.1312
1977-07-20 22:55:00 UTC,2443345.454861,29.0386,-88.1128,0175,-2.27,2.24,3.1891,314.6189
1977-07-20 23:15:00 UTC,2443345.468750,29.0386,-88.1128,0175,-2.26,2.23,3.1750,314.6172
1977-07-20 23:35:00 UTC,2443345.482639,29.0386,-88.1128,0175,-2.32,2.28,3.2528,314.5018
1977-07-20 23:55:00 UTC,2443345.496528,29.0386,-88.1128,0175,-3.07,2.15,3.7480,305.0045
1977-07-21 00:15:00 UTC,2443345.510417,29.0386,-88.1128,0175,-2.72,1.93,3.3352,305.3579
1977-07-21 00:35:00 UTC,2443345.524306,29.0386,-88.1128,0175,-2.53,2.29,3.4125,312.1494
1977-07-21 00:55:00 UTC,2443345.538194,29.0386,-88.1128,0175,-2.56,2.29,3.4348,311.8136
1977-07-21 01:15:00 UTC,2443345.552083,29.0386,-88.1128,0175,-2.49,2.25,3.3560,312.1014
1977-07-21 01:35:00 UTC,2443345.565972,29.0386,-88.1128,0175,-2.43,2.22,3.2914,312.4142
1977-07-21 01:55:00 UTC,2443345.579861,29.0386,-88.1128,0175,-2.49,2.28,3.3762,312.4792
1977-07-21 02:15:00 UTC,2443345.593750,29.0386,-88.1128,0175,-2.49,2.46,3.5002,314.6528
1977-07-21 02:35:00 UTC,2443345.607639,29.0386,-88.1128,0175,-2.48,2.41,3.4581,314.1799
1977-07-21 02:55:00 UTC,2443345.621528,29.0386,-88.1128,0175,-2.53,2.44,3.5149,313.9626
1977-07-21 03:15:00 UTC,2443345.635417,29.0386,-88.1128,0175,-2.71,2.37,3.6001,311.1710
1977-07-21 03:35:00 UTC,2443345.649306,29.0386,-88.1128,0175,-2.59,2.47,3.5790,313.6415
1977-07-21 03:55:00 UTC,2443345.663194,29.0386,-88.1128,0175,-2.78,2.22,3.5576,308.6095
1977-07-21 04:15:00 UTC,2443345.677083,29.0386,-88.1128,0175,-2.71,2.11,3.4346,307.9042
1977-07-21 04:35:00 UTC,2443345.690972,29.0386,-88.1128,0175,-2.76,1.91,3.3564,304.6844
1977-07-21 04:55:00 UTC,2443345.704861,29.0386,-88.1128,0175,-2.79,2.01,3.4386,305.7701
1977-07-21 05:15:00 UTC,2443345.718750,29.0386,-88.1128,0175,-2.71,2.14,3.4531,308.2970
1977-07-21 05:35:00 UTC,2443345.732639,29.0386,-88.1128,0175,-2.62,2.49,3.6145,313.5427
1977-07-21 05:55:00 UTC,2443345.746528,29.0386,-88.1128,0175,-2.82,2.43,3.7225,310.7516
1977-07-21 06:15:00 UTC,2443345.760417,29.0386,-88.1128,0175,-2.91,2.35,3.7404,308.9230
1977-07-21 06:35:00 UTC,2443345.774306,29.0386,-88.1128,0175,-2.74,2.42,3.6557,311.4513
1977-07-21 06:55:00 UTC,2443345.788194,29.0386,-88.1128,0175,-2.58,2.54,3.6205,314.5524
1977-07-21 07:15:00 UTC,2443345.802083,29.0386,-88.1128,0175,-2.79,2.37,3.6607,310.3466
1977-07-21 07:35:00 UTC,2443345.815972,29.0386,-88.1128,0175,-2.80,2.32,3.6363,309.6442
1977-07-21 07:55:00 UTC,2443345.829861,29.0386,-88.1128,0175,-2.74,2.30,3.5774,310.0107
1977-07-21 08:15:00 UTC,2443345.843750,29.0386,-88.1128,0175,-2.64,2.42,3.5813,312.5104